www.pogodaiklimat.ru

Погода и климат >> Архив погоды >> Россия >> Курганская область >> Курган


АРХИВ ПОГОДЫ в Кургане

Время (UTC), дата Ветер
(напр.,м/с)
 
Видим.   Явления Облачность Т
(С)
Тd
(С)
f
(%)
Тe
(С)
Тes
(С)
Комфортность P
(гПа)
Po
(гПа)
Тmin
(С)
Tmax
(С)
R
(мм)
R24
(мм)
S
(см)
12 18.05 З 2
{12}
50 км в посл. час ливневой дождь 6/4 1000 м
[Cb cap Ci fib]
+12.2 +2.6 52 +12 +15 холодно 1003.1 994.3
15 18.05 Ю 1 50 км 10/8 1000 м
[Cb cap Ci fib]
+9.4 +4.3 70 +9 +9 прохладно 1002.3 993.4 +14.5 0.3
18 18.05 штиль 0 10 км в посл. час ливневой дождь 8/8 1000 м
[Cb cap]
+7.2 +4.8 85 +6 +6 прохладно 1001.8 992.8
21 18.05 штиль 0 10 км 8/8 1000 м
[Sc]
+4.8 +3.5 91 +4 +4 прохладно 1000.2 991.2
00 19.05 Ю 1 20 км 10/5 1000 м
[Sc Ac trans Ci fib]
+5.0 +3.8 92 +4 +4 по сезону 999.3 990.3
03 19.05 З 2 50 км 10/4 1000 м
[Sc Ac trans Ci fib]
+7.5 +3.5 76 +6 +7 прохладно 998.6 989.7 +4.3 0.3
06 19.05 Ю 1 10 км в посл. час ливневой дождь 10/8 600 м
[Cb cap Ac und]
+6.7 +3.9 82 +6 +7 очень
холодно
998.5 989.5
09 19.05 З 3
{10}
10 км слаб. ливневой дождь 10/8 600 м
[Cb cap Ac und]
+7.5 +3.1 74 +5 +6 очень
холодно
999.1 990.2
12 19.05 З 4 10 км слаб. ливневой дождь 10/8 600 м
[Cb cap Ac und]
+6.5 +2.9 78 +3 +3 очень
холодно
1001.1 992.1
15 19.05 З 3
{10}
10 км слаб. ливневой дождь 10/8 300 м
[Cb cap Ac und]
+5.3 +2.3 81 +2 +2 очень
холодно
1002.8 993.8 +10.3 2
18 19.05 ЮЗ 3 10 км в посл. час ливневой дождь 10/4 1000 м
[Cb cap Ac und]
+5.1 +2.1 81 +2 +2 очень
холодно
1004.1 995.1
21 19.05 ЮЗ 1 10 км 8/0
[Ac trans Ci fib]
+3.8 +0.8 81 +2 +2 холодно 1004.4 995.3
00 20.05 Ю 1 20 км 3/3 1000 м
[Sc]
+0.2 -0.9 92 -2 -2 очень
холодно
1005.3 996.1
03 20.05 З 1 50 км 3/0
[Ac trans]
+5.8 +0.9 71 +5 +10 холодно 1005.4 996.3 +0.1
06 20.05 З 2 50 км в посл. час ливневой дождь 8/8 600 м
[Cb cap]
+9.7 +0.7 53 +9 +11 холодно 1004.5 995.5
09 20.05 СЗ 3 50 км слаб. ливневой дождь 10/8 600 м
[Cb cap Ac und]
+7.3 +0.9 64 +5 +5 очень
холодно
1005.3 996.3
12 20.05 С 1 50 км {ливн. осадки} 6/3 1000 м
[Cb cap Ac trans Ci fib]
+9.9 +0.4 52 +10 +14 очень
холодно
1005.0 996.0
15 20.05 З 1
{11}
50 км {ливн. осадки} 8/3 1000 м
[Cb cap Ac trans Ci fib]
+6.7 +2.7 76 +6 +6 очень
холодно
1005.7 996.7 +10.9 2
18 20.05 ЮЗ 1 10 км {ливн. осадки} 6/0
[Ac trans Ci fib]
+4.8 +2.6 86 +3 +3 очень
холодно
1006.1 997.0
21 20.05 З 2 10 км 6/0
[Ac trans Ci fib]
+4.2 +1.5 83 +1 +1 очень
холодно
1006.0 996.9
00 21.05 Ю 1 50 км 4/0
[Ac trans Ci fib]
+1.6 +0.3 91 -0 -0 холодно 1006.9 997.7
03 21.05 З 1 50 км 6/0
[Ac trans Ci fib]
+6.0 +1.8 74 +5 +9 холодно 1007.5 998.4 +1.6
06 21.05 З 2 50 км 10/8 1000 м
[Cb cap Ac und]
+8.6 +1.0 59 +7 +8 очень
холодно
1007.5 998.5
09 21.05 З 3
{12}
50 км в посл. час ливневой дождь 10/6 1000 м
[Cb cap Ac und]
+9.3 +1.7 59 +7 +9 очень
холодно
1007.7 998.7
12 21.05 З 3 50 км слаб. ливневой дождь 10/8 1000 м
[Cb cap Ac und]
+6.6 +2.5 75 +4 +4 очень
холодно
1009.3 1000.2
15 21.05 З 2 50 км {ливн. осадки} 10/5 1000 м
[Cb cap Ac und]
+6.3 +2.3 76 +4 +4 очень
холодно
1010.0 1001.0 +10.8 0.8
18 21.05 СЗ 1 10 км в посл. час ливневой дождь 10/8 1000 м
[Cb cap Ac und]
+5.1 +1.6 78 +4 +4 холодно 1011.3 1002.2
21 21.05 СЗ 2 10 км 10/3 1000 м
[Cb cap Ac trans Ci fib]
+4.7 +0.8 76 +2 +2 холодно 1011.7 1002.6
00 22.05 СЗ 2 50 км 10/0
[Ac und]
+4.1 +1.1 81 +1 +1 прохладно 1012.3 1003.1
03 22.05 З 2 50 км 10/3 1000 м
[Cb cap Ac und]
+5.0 +0.9 75 +3 +4 холодно 1013.1 1004.0 +4.1
06 22.05 З 2 50 км в посл. час ливневой дождь 10/8 600 м
[Cb cap Ac und]
+7.7 +0.4 60 +6 +7 очень
холодно
1013.1 1004.1
09 22.05 З 3 50 км {ливн. осадки} 8/8 600 м
[Cb cap]
+9.2 +0.9 56 +7 +10 очень
холодно
1013.1 1004.1
12 22.05 З 3 50 км {ливн. осадки} 10/10 600 м
[Cb cap]
+10.1 +0.1 50 +8 +8 очень
холодно
1013.4 1004.5
15 22.05 ЮЗ 1 20 км 3/3 1000 м
[Sc diur, vesp]
+10.8 +0.3 48 +11 +11 прохладно 1013.5 1004.5 +11.4
18 22.05 Ю 1 10 км ясно +5.5 +1.5 75 +4 +4 холодно 1014.3 1005.2
21 22.05 Ю 1 10 км ясно +3.2 +0.6 83 +2 +2 холодно 1014.3 1005.1
00 23.05 штиль 0 20 км 6/0
[Ac trans]
+2.6 +1.0 89 +1 +2 прохладно 1014.3 1005.0
03 23.05 Ю 2 50 км 8/0
[Ac trans]
+10.8 +2.7 57 +10 +13 по сезону 1013.3 1004.3 +1.5
06 23.05 Ю 2 50 км 8/4 1000 м
[Cb cap Ac trans Ci fib]
+17.4 -0.4 30 +18 +23 тепло 1011.7 1003.0
09 23.05 ЮЗ 3 50 км 10/8 600 м
[Cb cap Ac trans Ci fib]
+19.2 -4.1 20 +19 +21 тепло 1010.1 1001.4
12 23.05 Ю 3 50 км 10/6 600 м
[Cb cap Ci fib]
+20.1 -3.9 19 +20 +22 тепло 1007.6 999.0
15 23.05 ЮВ 1 20 км 10/6 600 м
[Sc diur, vesp Ac trans Ci fib]
+18.7 -1.4 26 +20 +20 тепло 1004.6 996.0 +20.8
18 23.05 Ю 2 10 км 10/0
[Ac trans Ci fib]
+14.3 +5.7 56 +14 +14 тепло 1004.2 995.4
21 23.05 Ю 2 10 км 10/0
[Ac trans Ci fib]
+13.3 +7.5 68 +13 +13 тепло 1002.3 993.5
00 24.05 Ю 2 20 км 10/0
[Ac trans Ci fib]
+12.9 +7.5 70 +12 +12 тепло 1001.1 992.3
03 24.05 Ю 3 50 км 6/0
[Ci fib]
+18.2 +6.2 45 +18 +22 тепло 999.8 991.2 +12.3
06 24.05 ЮЗ 5-11
{12}
50 км 8/3 1000 м
[Cu hum Ac trans Ci fib]
+22.8 +3.1 27 +22 +26 комфорт 999.0 990.5
09 24.05 ЮЗ 5-11
{14}
50 км 8/5 1000 м
[Cb calv Ac trans]
+24.6 +1.7 22 +23 +26 комфорт 997.8 989.4
12 24.05 СЗ 3
{11}
50 км 10/5 1000 м
[Cb calv Ac trans Ci fib]
+17.5 +7.3 51 +18 +19 по сезону 1000.1 991.5
15 24.05 С 3 50 км 10/6 1000 м
[Cb calv Ac trans Ci fib]
+13.6 +7.7 67 +13 +13 по сезону 1000.5 991.7 +24.9
18 24.05 СЗ 4
{10}
10 км 10/5 1000 м
[Cb cap Ac und]
+7.3 +5.0 85 +4 +4 холодно 1003.0 994.0
21 24.05 СЗ 3
{11}
10 км слаб. ливневой дождь 10/8 600 м
[Cb cap Ac und]
+3.3 +1.8 90 -1 -1 очень
холодно
1005.2 996.1
00 25.05 СЗ 2 20 км {ливн. осадки} 8/4 1000 м
[Cb cap Ac trans Ci fib]
+3.5 +1.9 89 +1 +1 прохладно 1007.5 998.3
03 25.05 СЗ 4 50 км 3/3 1000 м
[Sc]
+6.8 +0.7 65 +4 +6 холодно 1009.7 1000.7 +2.8 6
06 25.05 СЗ 5
{10}
50 км 8/8 1000 м
[Cb cap]
+9.3 -4.8 37 +7 +8 очень
холодно
1011.5 1002.5
09 25.05 СЗ 4
{13}
50 км в посл. час ливневой дождь 8/8 1000 м
[Cb cap]
+8.8 -2.1 46 +6 +8 очень
холодно
1013.0 1004.0

 

Местоположение метеостанции Курган (Курганская область, Россия): широта 55.45 долгота 65.40 высота над уровнем моря 72 м.

В архиве по умолчанию представлена погода в Кургане за последнюю неделю. Архивные данные за месяц целиком и за предыдущие месяцы, начиная с января 2011 года, Вы можете получить, выбрав интересующий диапазон дат из раскрывающегося списка и нажав кнопку "Ввод!".


*Определитесь, кто Вы:
робот инопланетянин человек

Внимание! Время в таблицах - всемирное. Для получения местного времени необходимо прибавить поправку, которая равна 5 ч.

Смотрите также архив погоды в соседних городах и на ближайших метеорологических станциях:

Погода в Памятном (Курганская область, Россия) (66 км)
Погода в Половинном (Курганская область, Россия) (85 км)
Погода в Куртамыше (Курганская область, Россия) (85 км)
Погода в Пресногорьковке (Костанайская область, Казахстан) (111 км)
Погода в Исетском (Тюменская область, Россия) (114 км)
Погода в Звериноголовском (Курганская область, Россия) (114 км)
Погода в Макушино (Курганская область, Россия) (122 км)
Погода в Шатрово (Курганская область, Россия) (128 км)
Погода в Шадринске (Курганская область, Россия) (129 км)
Погода в Шумихе (Курганская область, Россия) (134 км)

Пояснения к столбцам:

Ветер - указаны скорость ветра в м/с - средняя за 10 мин, порывы в срок и между сроками (в фигурных скобках) и направление, откуда дует ветер: С - северный, СВ - северо-восточный, В - восточный, ЮВ - юго-восточный, Ю - южный, ЮЗ - юго-западный, З - западный, СЗ - северо-западный.
Видимость - горизонтальная дальность видимости в метрах или километрах. При видимости от 1 до 10 км при отсутствии осадков обычно наблюдается дымка, при ухудшении видимости до 1 км и менее - туман. В сухую погоду видимость может ухудшаться дымом, пылью или мглою.
Явления - указаны атмосферные явления, наблюдавшиеся в срок или в последний час перед сроком; фигурными скобками обозначены явления, наблюдавшиеся между сроками (за 1-3 часа до срока); квадратными скобками обозначены град или гололедные отложения с указанием их диаметра в мм.
Облачность - указаны через наклонную черту общая и нижняя облачность в баллах и высота нижней границы облаков в метрах; квадратными скобками обозначены формы облаков: Ci - перистые, Cs - перисто-слоистые, Cc - перисто-кучевые, Ac - высококучевые, As - высокослоистые, Sc - слоисто-кучевые, Ns - слоисто-дождевые, Cu - кучевые, Cb - кучево-дождевые. Подробнее классификацию облаков см. в Атласе облаков (PDF).
T - Температура воздуха - температура, измеренная на высоте 2 м над землей.
Td - Температура точки росы - температура, при понижении до которой содержащийся в воздухе водяной пар достигнет насыщения.
f - Относительная влажность воздуха - влажноcть воздуха, измеренная на высоте 2 м над землей.
Te - Эффективная температура - температура, которую ощущает одетый по сезону человек в тени. Характеристика душности погоды. При расчете учитывается влияние влажности воздуха и скорости ветра на теплоощущения человека.
Tes - Эффективная температура на солнце - температура, которую ощущает человек, с поправкой на солнечный нагрев. Характеристика знойности погоды. Зависит от высоты солнца над горизонтом, облачности и скорости ветра. Ночью, в пасмурную погоду, а также при ветре 12 м/с и более поправка равна нулю.
P - Атмосферное давление - приведенное к уровню моря атмосферное давление.
Po - Атмосферное давление - измеренное на уровне метеостанции атмосферное давление.
Tmin - Минимальная температура - минимум температуры воздуха на высоте 2 м над землей.
Tmax - Максимальная температура - максимум температуры воздуха на высоте 2 м над землей.
R - Количество осадков - Количество выпавших осадков за период времени, мм. При наведении курсора мыши на число - период времени, за который выпало указанное количество осадков.
R24 - Количество осадков - Количество выпавших осадков за 24 часа, мм.
S - Снежный покров - Высота снежного покрова, см. При наведении курсора мыши на число - состояние снежного покрова и степень покрытия местности в баллах.